Regional Weather Roundup
Issued by NWS Charleston, SC

Current Version | Previous Version | Graphics & Text | Print | Product List | Glossary On
Versions: 1 2 3 4 5 6 7 8 9 10 11 12 13 14 15 16 17 18 19 20 21 22 23 24 25 26 27 28 29 30 31 32 33 34 35 36 37 38 39 40 41 42 43 44 45 46 47 48 49 50
000
ASUS42 KCHS 180612
RWRCHS

REGIONAL WEATHER ROUNDUP
NATIONAL WEATHER SERVICE CHARLESTON SC
200 AM EDT WED OCT 18 2017

NOTE: "FAIR" INDICATES FEW OR NO CLOUDS BELOW 12,000 FEET WITH NO
SIGNIFICANT WEATHER AND/OR OBSTRUCTIONS TO VISIBILITY.

NOT ALL STATIONS ARE QUALITY CONTROLLED. USE DATA WITH CAUTION...
ESPECIALLY DEWPOINT OBSERVATIONS.

SCZ027-030-031-034>040-042>050-180700-
...SOUTHEAST SOUTH CAROLINA...

CITY           SKY/WX    TMP DP  RH WIND       PRES   REMARKS
N CHARLESTON   CLEAR     52  46  80 NE9       30.25F
6HR MIN TEMP:  52; 6HR MAX TEMP:  58;

WATERFRONT PRK   N/A     61  52  72 NE14      30.10S
JOHNS ISLAND   FAIR      57  45  62 N10       30.25S
PINOPOLIS        N/A     59  52  77 NE14      30.18F
MONCKS CORNER  FAIR      52  43  71 NE6       30.27F
SUMMERVILLE    FAIR      46  45  93 CALM      30.28F
BEAUFORT MCAS  CLEAR     56  47  71 MISG      30.25F
6HR MIN TEMP:  56; 6HR MAX TEMP:  62;

BEAUFORT ARPT  FAIR      57  46  67 NE14      30.24S
HILTON HEAD IS CLEAR     61  46  59 NE14      30.24S
WALTERBORO     CLEAR     45  43  93 N5        30.28S
ALLENDALE      NOT AVBL

...SOUTHERN MIDLANDS AND PEE DEE...

CITY           SKY/WX    TMP DP  RH WIND       PRES   REMARKS
GEORGETOWN     FAIR      52  46  82 N7        30.28S
KINGSTREE      FAIR      43  41  93 CALM      30.30S
ORANGEBURG     CLEAR     49  41  74 NE6       30.29S
6HR MIN TEMP:  49; 6HR MAX TEMP:  56;

BARNWELL         N/A     50  43  76 CALM      30.28F
AIKEN          FAIR      45  39  81 NE3       30.32F
MANNING        FOG       45  45 100 MISG      30.30R VSB<1/4
COLUMBIA       CLEAR     45  43  93 S3        30.30F
6HR MIN TEMP:  45; 6HR MAX TEMP:  57;

SUMTER         CLEAR     47  40  74 NE7       30.27F
6HR MIN TEMP:  47; 6HR MAX TEMP:  53;

FLORENCE       CLEAR     47  42  83 E5        30.31S
6HR MIN TEMP:  47; 6HR MAX TEMP:  55;

MYRTLE BEACH   CLEAR     52  45  77 NE10      30.29F
N MYRTLE BEACH CLEAR     50  46  86 NE6       30.28S
6HR MIN TEMP:  50; 6HR MAX TEMP:  55;


$$

GAZ063-065-086>088-099>101-113>116-118-119-134>141-150-180700-
...SOUTHEAST GEORGIA...

CITY           SKY/WX    TMP DP  RH WIND       PRES   REMARKS
SAVANNAH ARPT  CLEAR     55  47  74 N9        30.24F
6HR MIN TEMP:  55; 6HR MAX TEMP:  60;

HUNTER AAF     CLEAR     58  47  68 N7        30.20F
6HR MIN TEMP:  58; 6HR MAX TEMP:  62;

FORT STEWART   PTCLDY    53  46  76 N6        30.21F
6HR MIN TEMP:  53; 6HR MAX TEMP:  56;

STATESBORO     CLEAR     49  42  79 CALM      30.26F
SYLVANIA       CLEAR     51  45  81 E6        30.27F
CLAXTON        FAIR      47  46  99 CALM      30.25F

...CSRA...CENTRAL AND FAR SOUTHEAST GEORGIA...

CITY           SKY/WX    TMP DP  RH WIND       PRES   REMARKS
THOMSON        CLEAR     42  41  95 CALM      30.34S
AUGUSTA-BUSH   CLEAR     45  42  89 N3        30.29S
6HR MIN TEMP:  44; 6HR MAX TEMP:  57;

AUGUSTA-DANIEL CLEAR     56  40  55 NE7       30.29F
SWAINSBORO     FAIR      50  43  76 NE6       30.27S
VIDALIA        CLEAR     52  45  76 NE6       30.25F
EASTMAN        FAIR      52  35  52 NE5       30.28S
HAZLEHURST     FAIR      54  37  52 NE5       30.23F
ALMA           PTCLDY    55  43  63 VRB5      30.23S
6HR MIN TEMP:  54; 6HR MAX TEMP:  59;

WAYCROSS       PTCLDY    52  43  73 NE5       30.22S
JESUP          NOT AVBL
BAXLEY         FAIR      52  43  71 NE7       30.23S
BRUNSWICK      PTCLDY    59  50  72 N7        30.20S
SAINT SIMONS   CLOUDY    63  55  75 N10       30.17F
6HR MIN TEMP:  63; 6HR MAX TEMP:  69;


$$

SCZ027-028-034-036>038-045-046-048>050-GAZ119-141-180700-
...LAKE AND SUPPLEMENTAL COASTAL OBSERVATIONS...

STATION/POSITION TIME  TEMP    WIND        PRES    WAVE   SWELL
                       AIR SEA DIR/SP/G            HT/PER HT/PER/DIR
                 (UTC) (F)     (DEG/KT/KT) (MB)    (FT/S) (FT/S/D)
WINYAH BAY       NOT AVBL
LAKE MURRAY      0520   55      30/  2/  6 1025.4
ACE BASIN NERRS  0445   56     360/  1     1025.0
FORT PULASKI     0542           30/ 11/ 15 1023.7F
SAPELO ISLAND    0500   66      30/  9     1022.0

$$

ANZ835-935-AMZ111-154-330-350-352-354-370-450-454-472-180700-
...C-MAN AND BUOY OBSERVATIONS...

STATION/POSITION TIME  TEMP    WIND        PRES    WAVE   SWELL
                       AIR SEA DIR/SP/G            HT/PER HT/PER/DIR
                 (UTC) (F)     (DEG/KT/KT) (MB)    (FT/S) (FT/S/D)
BUOY 41004       0550   69 80   50/ 21/ 25 1022.3F   9/11   7/100/11
BUOY 41008       0550   71 78   60/ 21/ 25 1021.4S   7/ 6   3/100/ 8
FOLLY BEACH CMAN 0500   61      10/ 17/ 19 1024.7F
CAPERS NEARSHORE 0508   61 75   20/ 17/ 25 1023.5F
FRIPP NEARSHORE  NOT AVBL


STATION/POSITION TIME  TEMP    WIND        PRES    WAVE   SWELL
                       AIR SEA DIR/SP/G            HT/PER HT/PER/DIR
                 (UTC) (F)     (DEG/KT/KT) (MB)    (FT/S) (FT/S/D)
5E ST. MARYS GA  0530      79                N/A     8/10   2/ 90/11
FRYING PAN BUOY  0550   67 77   40/ 17/ 23 1023.4S   6/10   3/120/10
BUOY 41025       0550   66 81   20/ 19/ 25 1023.4F   7/ 9   3/ 70/ 9
CAPE LOOKOUT NC  0500   58     360/ 14/ 16 1024.9F
BUOY 41002       0550   75 79   50/ 19/ 23 1018.7F  11/ 8   5/ 30/10
BUOY 41010       NOT AVBL
ST AUGUSTINE FL  0600   76 78   30/ 24/ 26 1019.5F


$$




USA.gov is the U.S. government's official web portal to all federal, state and local government web resources and services.